Location: Centerville
(32.8776°N, 96.6203°W)
Time: 02:20:58
(UTC+00:00)

Cosmos 1862 - Pass Details

Date: 17 June 2021
Orbit: 536 x 556 km, 82.5° (Epoch: 27 July)

Event Time Altitude Azimuth Distance (km) Brightness Sun altitude
Exits shadow 09:44:53 22° 180° (S) 1,213 4.7 -16.7°
Maximum altitude 09:47:22 80° 96° (E) 566 3.4 -16.3°
Drops below altitude 10° 09:51:25 10° 9° (N) 1,841 6.7 -15.6°
Sets 09:53:36 0° 8° (N) 2,741 7.7 -15.3°
